Time,TemperatureF,DewpointF,PressureIn,WindDirection,WindDirectionDegrees,WindSpeedMPH,WindSpeedGustMPH,Humidity,HourlyPrecipIn,Conditions,Clouds,dailyrainin,SoftwareType,DateUTC
2013-01-10 00:01:00,25.0,16.0,30.12,East,90,0.0,2.0,69,0.00,,,-99.99,,2013-01-10 07:01:00,
2013-01-10 00:11:00,25.0,16.0,30.12,East,90,0.0,2.0,69,0.00,,,-99.99,,2013-01-10 07:11:00,
2013-01-10 00:22:00,25.0,15.0,30.12,SE,135,4.0,6.0,66,0.00,,,-99.99,,2013-01-10 07:22:00,
2013-01-10 00:32:00,27.0,16.0,30.11,SE,135,3.0,5.0,64,0.00,,,-99.99,,2013-01-10 07:32:00,
2013-01-10 00:42:00,27.0,16.0,30.11,SE,135,3.0,5.0,64,0.00,,,-99.99,,2013-01-10 07:42:00,
2013-01-10 00:52:00,29.0,16.0,30.10,SE,135,7.0,9.0,59,0.00,,,-99.99,,2013-01-10 07:52:00,
2013-01-10 01:01:00,30.0,16.0,30.09,SE,135,9.0,11.0,55,0.00,,,-99.99,,2013-01-10 08:01:00,
2013-01-10 01:11:00,30.0,16.0,30.09,SE,135,9.0,11.0,55,0.00,,,-99.99,,2013-01-10 08:11:00,
2013-01-10 01:21:00,31.0,15.0,30.09,SE,135,8.0,11.0,52,0.00,,,-99.99,,2013-01-10 08:21:00,
2013-01-10 01:32:00,31.0,15.0,30.08,SE,135,9.0,10.0,52,0.00,,,-99.99,,2013-01-10 08:32:00,
2013-01-10 01:42:00,31.0,15.0,30.08,SE,135,9.0,10.0,52,0.00,,,-99.99,,2013-01-10 08:42:00,
2013-01-10 01:52:00,31.0,15.0,30.08,SE,135,9.0,10.0,52,0.00,,,-99.99,,2013-01-10 08:52:00,
2013-01-10 02:02:00,31.0,15.0,30.06,SE,135,8.0,11.0,51,0.00,,,-99.99,,2013-01-10 09:02:00,
2013-01-10 02:12:00,31.0,15.0,30.06,SE,135,8.0,11.0,51,0.00,,,-99.99,,2013-01-10 09:12:00,
2013-01-10 02:22:00,31.0,15.0,30.07,SE,135,8.0,11.0,50,0.00,,,-99.99,,2013-01-10 09:22:00,
2013-01-10 02:32:00,30.0,14.0,30.06,SE,135,7.0,9.0,51,0.00,,,-99.99,,2013-01-10 09:32:00,
2013-01-10 02:42:00,30.0,14.0,30.06,SE,135,7.0,9.0,51,0.00,,,-99.99,,2013-01-10 09:42:00,
2013-01-10 02:52:00,29.0,14.0,30.06,South,180,5.0,8.0,52,0.00,,,-99.99,,2013-01-10 09:52:00,
2013-01-10 03:02:00,23.0,13.0,30.05,West,270,3.0,8.0,64,0.00,,,-99.99,,2013-01-10 10:02:00,
2013-01-10 03:11:00,23.0,13.0,30.05,West,270,3.0,8.0,64,0.00,,,-99.99,,2013-01-10 10:11:00,
2013-01-10 03:22:00,24.0,14.0,30.06,West,270,0.0,3.0,65,0.00,,,-99.99,,2013-01-10 10:22:00,
2013-01-10 03:30:00,28.0,13.0,30.04,SW,225,7.0,14.0,53,0.00,,,-99.99,,2013-01-10 10:30:00,
2013-01-10 03:32:00,24.0,14.0,30.05,NW,315,0.0,2.0,64,0.00,,,-99.99,,2013-01-10 10:32:00,
2013-01-10 03:42:00,24.0,14.0,30.05,NW,315,0.0,2.0,64,0.00,,,-99.99,,2013-01-10 10:42:00,
2013-01-10 03:52:00,28.0,13.0,30.04,SW,225,7.0,14.0,53,0.00,,,-99.99,,2013-01-10 10:52:00,
2013-01-10 04:02:00,28.0,13.0,30.04,SW,225,7.0,14.0,53,0.00,,,-99.99,,2013-01-10 11:02:00,
2013-01-10 04:12:00,28.0,13.0,30.04,SW,225,7.0,14.0,53,0.00,,,-99.99,,2013-01-10 11:12:00,
2013-01-10 04:22:00,28.0,13.0,30.04,SW,225,7.0,14.0,53,0.00,,,-99.99,,2013-01-10 11:22:00,
2013-01-10 04:53:00,34.0,13.0,30.03,South,180,12.0,15.0,42,0.00,,,-99.99,,2013-01-10 11:53:00,
2013-01-10 05:02:00,34.0,13.0,30.03,South,180,12.0,15.0,42,0.00,,,-99.99,,2013-01-10 12:02:00,
2013-01-10 05:12:00,34.0,13.0,30.03,South,180,12.0,15.0,42,0.00,,,-99.99,,2013-01-10 12:12:00,
2013-01-10 05:22:00,34.0,13.0,30.01,South,180,8.0,12.0,42,0.00,,,-99.99,,2013-01-10 12:22:00,
2013-01-10 05:33:00,34.0,13.0,30.01,South,180,7.0,9.0,41,0.00,,,-99.99,,2013-01-10 12:33:00,
2013-01-10 05:43:00,34.0,13.0,30.01,South,180,7.0,9.0,41,0.00,,,-99.99,,2013-01-10 12:43:00,
2013-01-10 05:53:00,34.0,13.0,30.00,South,180,8.0,9.0,41,0.00,,,-99.99,,2013-01-10 12:53:00,
2013-01-10 06:01:00,32.0,13.0,29.99,South,180,6.0,8.0,44,0.00,,,-99.99,,2013-01-10 13:01:00,
2013-01-10 06:11:00,32.0,13.0,29.99,South,180,6.0,8.0,44,0.00,,,-99.99,,2013-01-10 13:11:00,
2013-01-10 06:22:00,33.0,13.0,29.99,NNW,338,4.0,5.0,43,0.00,,,-99.99,,2013-01-10 13:22:00,
2013-01-10 06:32:00,32.0,13.0,29.99,NW,315,1.0,3.0,44,0.00,,,-99.99,,2013-01-10 13:32:00,
2013-01-10 06:42:00,32.0,13.0,29.99,NW,315,1.0,3.0,44,0.00,,,-99.99,,2013-01-10 13:42:00,
2013-01-10 06:52:00,31.0,13.0,29.98,SE,135,2.0,4.0,46,0.00,,,-99.99,,2013-01-10 13:52:00,
2013-01-10 07:02:00,31.0,13.0,29.98,SE,135,2.0,4.0,46,0.00,,,-99.99,,2013-01-10 14:02:00,
2013-01-10 07:11:00,31.0,13.0,29.98,SE,135,2.0,4.0,46,0.00,,,-99.99,,2013-01-10 14:11:00,
2013-01-10 07:22:00,31.0,12.0,29.99,SE,135,2.0,4.0,45,0.00,,,-99.99,,2013-01-10 14:22:00,
2013-01-10 07:32:00,32.0,12.0,29.98,West,270,2.0,4.0,43,0.00,,,-99.99,,2013-01-10 14:32:00,
2013-01-10 07:43:00,32.0,12.0,29.98,West,270,2.0,4.0,43,0.00,,,-99.99,,2013-01-10 14:43:00,
2013-01-10 07:52:00,32.0,12.0,29.98,West,270,2.0,4.0,43,0.00,,,-99.99,,2013-01-10 14:52:00,
2013-01-10 08:03:00,32.0,12.0,29.98,West,270,2.0,4.0,43,0.00,,,-99.99,,2013-01-10 15:03:00,
2013-01-10 08:12:00,32.0,12.0,29.98,West,270,2.0,4.0,43,0.00,,,-99.99,,2013-01-10 15:12:00,
2013-01-10 08:23:00,33.0,13.0,29.98,West,270,7.0,16.0,43,0.00,,,-99.99,,2013-01-10 15:23:00,
2013-01-10 08:33:00,33.0,13.0,29.98,SW,225,9.0,15.0,43,0.00,,,-99.99,,2013-01-10 15:33:00,
2013-01-10 08:43:00,33.0,13.0,29.98,SW,225,9.0,15.0,43,0.00,,,-99.99,,2013-01-10 15:43:00,
2013-01-10 08:53:00,33.0,13.0,29.98,NW,315,10.0,16.0,43,0.00,,,-99.99,,2013-01-10 15:53:00,
2013-01-10 09:02:00,33.0,13.0,29.98,NW,315,10.0,16.0,43,0.00,,,-99.99,,2013-01-10 16:02:00,
2013-01-10 09:12:00,33.0,13.0,29.98,NW,315,10.0,16.0,43,0.00,,,-99.99,,2013-01-10 16:12:00,
2013-01-10 09:22:00,35.0,15.0,29.98,North,360,19.0,27.0,43,0.00,,,-99.99,,2013-01-10 16:22:00,
2013-01-10 09:33:00,35.0,15.0,29.98,North,360,19.0,27.0,43,0.00,,,-99.99,,2013-01-10 16:33:00,
2013-01-10 09:43:00,35.0,15.0,29.98,North,360,19.0,27.0,43,0.00,,,-99.99,,2013-01-10 16:43:00,
2013-01-10 09:53:00,37.0,16.0,29.97,South,180,22.0,33.0,41,0.00,,,-99.99,,2013-01-10 16:53:00,
2013-01-10 10:02:00,38.0,16.0,29.97,SW,225,21.0,31.0,41,0.00,,,-99.99,,2013-01-10 17:02:00,
2013-01-10 10:12:00,38.0,16.0,29.97,SW,225,21.0,31.0,41,0.00,,,-99.99,,2013-01-10 17:12:00,
2013-01-10 10:22:00,38.0,16.0,29.97,SW,225,21.0,31.0,41,0.00,,,-99.99,,2013-01-10 17:22:00,
2013-01-10 10:33:00,38.0,18.0,29.96,South,180,25.0,38.0,43,0.01,,,-99.99,,2013-01-10 17:33:00,
2013-01-10 10:42:00,38.0,18.0,29.96,South,180,25.0,38.0,43,0.01,,,-99.99,,2013-01-10 17:42:00,
2013-01-10 10:53:00,38.0,17.0,29.96,SW,225,27.0,36.0,42,0.01,,,-99.99,,2013-01-10 17:53:00,
2013-01-10 11:03:00,38.0,17.0,29.96,SW,225,27.0,42.0,42,0.01,,,-99.99,,2013-01-10 18:03:00,
2013-01-10 11:12:00,38.0,17.0,29.96,SW,225,27.0,42.0,42,0.01,,,-99.99,,2013-01-10 18:12:00,
2013-01-10 11:22:00,38.0,17.0,29.96,SW,225,27.0,42.0,42,0.01,,,-99.99,,2013-01-10 18:22:00,
2013-01-10 11:32:00,36.0,17.0,29.93,SW,225,28.0,40.0,46,0.04,,,-99.99,,2013-01-10 18:32:00,
2013-01-10 11:43:00,36.0,17.0,29.93,SW,225,28.0,40.0,46,0.04,,,-99.99,,2013-01-10 18:43:00,
2013-01-10 11:53:00,36.0,17.0,29.93,SW,225,28.0,40.0,46,0.04,,,-99.99,,2013-01-10 18:53:00,
2013-01-10 12:02:00,37.0,19.0,29.92,SW,225,27.0,36.0,47,0.00,,,-99.99,,2013-01-10 19:02:00,
2013-01-10 12:12:00,38.0,20.0,29.91,SW,225,27.0,41.0,47,0.01,,,-99.99,,2013-01-10 19:12:00,
2013-01-10 12:23:00,38.0,20.0,29.91,SW,225,27.0,41.0,47,0.01,,,-99.99,,2013-01-10 19:23:00,
2013-01-10 12:32:00,38.0,20.0,29.91,SW,225,30.0,42.0,48,0.02,,,-99.99,,2013-01-10 19:32:00,
2013-01-10 12:53:00,37.0,19.0,29.90,SW,225,24.0,46.0,47,0.02,,,-99.99,,2013-01-10 19:53:00,
2013-01-10 13:02:00,36.0,19.0,29.89,NNW,338,25.0,43.0,49,0.04,,,-99.99,,2013-01-10 20:02:00,
2013-01-10 13:11:00,36.0,19.0,29.88,SW,225,23.0,39.0,50,0.02,,,-99.99,,2013-01-10 20:11:00,
2013-01-10 13:22:00,36.0,19.0,29.88,SW,225,23.0,39.0,50,0.02,,,-99.99,,2013-01-10 20:22:00,
2013-01-10 13:32:00,36.0,19.0,29.88,SW,225,22.0,34.0,50,0.02,,,-99.99,,2013-01-10 20:32:00,
2013-01-10 13:42:00,36.0,19.0,29.88,SW,225,22.0,34.0,50,0.02,,,-99.99,,2013-01-10 20:42:00,
2013-01-10 13:53:00,36.0,19.0,29.88,SW,225,22.0,34.0,50,0.02,,,-99.99,,2013-01-10 20:53:00,
2013-01-10 14:02:00,36.0,19.0,29.88,SW,225,22.0,34.0,50,0.02,,,-99.99,,2013-01-10 21:02:00,
2013-01-10 14:13:00,36.0,19.0,29.86,North,360,24.0,37.0,49,0.00,,,-99.99,,2013-01-10 21:13:00,
2013-01-10 14:23:00,36.0,19.0,29.86,North,360,24.0,37.0,49,0.00,,,-99.99,,2013-01-10 21:23:00,
2013-01-10 14:33:00,36.0,19.0,29.86,North,360,24.0,37.0,49,0.00,,,-99.99,,2013-01-10 21:33:00,
2013-01-10 14:43:00,36.0,19.0,29.86,North,360,24.0,37.0,49,0.00,,,-99.99,,2013-01-10 21:43:00,
2013-01-10 14:53:00,36.0,19.0,29.86,North,360,24.0,37.0,49,0.00,,,-99.99,,2013-01-10 21:53:00,
2013-01-10 15:02:00,36.0,19.0,29.84,South,180,29.0,42.0,49,0.06,,,-99.99,,2013-01-10 22:02:00,
2013-01-10 15:12:00,36.0,19.0,29.83,SW,225,29.0,43.0,50,0.07,,,-99.99,,2013-01-10 22:12:00,
2013-01-10 15:24:00,36.0,19.0,29.83,SW,225,29.0,43.0,50,0.07,,,-99.99,,2013-01-10 22:24:00,
2013-01-10 15:32:00,36.0,19.0,29.83,SW,225,29.0,43.0,50,0.07,,,-99.99,,2013-01-10 22:32:00,
2013-01-10 15:42:00,36.0,19.0,29.83,SW,225,29.0,43.0,50,0.07,,,-99.99,,2013-01-10 22:42:00,
2013-01-10 16:02:00,35.0,18.0,29.83,SW,225,25.0,44.0,50,0.21,,,-99.99,,2013-01-10 23:02:00,
2013-01-10 16:12:00,35.0,20.0,29.82,SW,225,28.0,53.0,53,0.24,,,-99.99,,2013-01-10 23:12:00,
2013-01-10 16:22:00,35.0,20.0,29.82,SW,225,28.0,53.0,53,0.24,,,-99.99,,2013-01-10 23:22:00,
2013-01-10 16:32:00,35.0,19.0,29.82,SW,225,26.0,49.0,52,0.15,,,-99.99,,2013-01-10 23:32:00,
2013-01-10 16:42:00,35.0,19.0,29.82,SW,225,26.0,49.0,52,0.15,,,-99.99,,2013-01-10 23:42:00,
2013-01-10 16:53:00,34.0,18.0,29.83,SW,225,26.0,44.0,52,0.12,,,-99.99,,2013-01-10 23:53:00,
2013-01-10 17:02:00,34.0,18.0,29.83,SW,225,26.0,44.0,52,0.12,,,-99.99,,2013-01-11 00:02:00,
2013-01-10 17:12:00,34.0,18.0,29.83,SW,225,26.0,44.0,52,0.12,,,-99.99,,2013-01-11 00:12:00,
2013-01-10 17:33:00,34.0,20.0,29.81,SW,225,36.0,53.0,55,0.91,,,-99.99,,2013-01-11 00:33:00,
2013-01-10 17:43:00,34.0,20.0,29.81,SW,225,36.0,53.0,55,0.91,,,-99.99,,2013-01-11 00:43:00,
2013-01-10 17:53:00,33.0,19.0,29.80,SW,225,35.0,56.0,56,1.28,,,-99.99,,2013-01-11 00:53:00,
2013-01-10 18:02:00,33.0,20.0,29.80,WNW,292,30.0,51.0,58,1.30,,,-99.99,,2013-01-11 01:02:00,
2013-01-10 18:12:00,33.0,20.0,29.80,South,180,28.0,45.0,58,1.00,,,-99.99,,2013-01-11 01:12:00,
2013-01-10 18:22:00,33.0,20.0,29.80,South,180,28.0,45.0,58,1.00,,,-99.99,,2013-01-11 01:22:00,
2013-01-10 18:33:00,33.0,20.0,29.80,South,180,28.0,45.0,58,1.00,,,-99.99,,2013-01-11 01:33:00,
2013-01-10 18:42:00,33.0,20.0,29.80,South,180,28.0,45.0,58,1.00,,,-99.99,,2013-01-11 01:42:00,
2013-01-10 18:52:00,33.0,21.0,29.79,SW,225,18.0,45.0,62,0.06,,,-99.99,,2013-01-11 01:52:00,
2013-01-10 19:02:00,32.0,21.0,29.78,SW,225,15.0,44.0,64,0.02,,,-99.99,,2013-01-11 02:02:00,
2013-01-10 19:12:00,32.0,22.0,29.78,SW,225,14.0,37.0,65,0.01,,,-99.99,,2013-01-11 02:12:00,
2013-01-10 19:22:00,32.0,22.0,29.78,SW,225,14.0,37.0,65,0.01,,,-99.99,,2013-01-11 02:22:00,
2013-01-10 19:32:00,32.0,23.0,29.78,North,360,13.0,34.0,68,0.02,,,-99.99,,2013-01-11 02:32:00,
2013-01-10 19:42:00,32.0,23.0,29.78,North,360,13.0,34.0,68,0.02,,,-99.99,,2013-01-11 02:42:00,
2013-01-10 19:52:00,32.0,23.0,29.78,North,360,13.0,34.0,68,0.02,,,-99.99,,2013-01-11 02:52:00,
2013-01-10 20:02:00,31.0,24.0,29.77,SW,225,12.0,34.0,74,0.05,,,-99.99,,2013-01-11 03:02:00,
2013-01-10 20:11:00,31.0,24.0,29.76,West,270,13.0,35.0,75,0.06,,,-99.99,,2013-01-11 03:11:00,
2013-01-10 20:22:00,31.0,24.0,29.76,West,270,13.0,35.0,75,0.06,,,-99.99,,2013-01-11 03:22:00,
2013-01-10 20:33:00,31.0,26.0,29.75,SW,225,24.0,42.0,81,0.97,,,-99.99,,2013-01-11 03:33:00,
2013-01-10 20:42:00,31.0,26.0,29.75,SW,225,24.0,42.0,81,0.97,,,-99.99,,2013-01-11 03:42:00,
2013-01-10 20:52:00,30.0,26.0,29.75,SW,225,17.0,34.0,85,0.97,,,-99.99,,2013-01-11 03:52:00,
2013-01-10 21:02:00,29.0,26.0,29.75,SW,225,18.0,37.0,90,1.15,,,-99.99,,2013-01-11 04:02:00,
2013-01-10 21:11:00,28.0,28.0,29.75,West,270,21.0,44.0,99,1.18,,,-99.99,,2013-01-11 04:11:00,
2013-01-10 21:22:00,28.0,28.0,29.75,West,270,21.0,44.0,99,1.18,,,-99.99,,2013-01-11 04:22:00,
2013-01-10 21:32:00,28.0,28.0,29.75,West,270,25.0,35.0,99,0.73,,,-99.99,,2013-01-11 04:32:00,
2013-01-10 21:42:00,28.0,28.0,29.75,West,270,25.0,35.0,99,0.73,,,-99.99,,2013-01-11 04:42:00,
2013-01-10 21:52:00,27.0,27.0,29.75,West,270,26.0,45.0,99,0.83,,,-99.99,,2013-01-11 04:52:00,
2013-01-10 22:03:00,27.0,27.0,29.75,West,270,26.0,45.0,99,0.83,,,-99.99,,2013-01-11 05:03:00,
2013-01-10 22:12:00,27.0,27.0,29.75,West,270,26.0,45.0,99,0.83,,,-99.99,,2013-01-11 05:12:00,
2013-01-10 22:22:00,24.0,24.0,29.76,West,270,34.0,47.0,99,2.70,,,-99.99,,2013-01-11 05:22:00,
2013-01-10 22:33:00,23.0,23.0,29.77,West,270,29.0,48.0,99,2.89,,,-99.99,,2013-01-11 05:33:00,
2013-01-10 22:43:00,23.0,23.0,29.77,West,270,29.0,48.0,99,2.89,,,-99.99,,2013-01-11 05:43:00,
2013-01-10 22:52:00,23.0,23.0,29.77,West,270,29.0,48.0,99,2.89,,,-99.99,,2013-01-11 05:52:00,
2013-01-10 23:02:00,23.0,23.0,29.78,West,270,20.0,35.0,99,2.07,,,-99.99,,2013-01-11 06:02:00,
2013-01-10 23:11:00,23.0,23.0,29.78,West,270,20.0,35.0,99,2.07,,,-99.99,,2013-01-11 06:11:00,
2013-01-10 23:22:00,23.0,23.0,29.75,West,270,21.0,29.0,99,0.38,,,-99.99,,2013-01-11 06:22:00,
2013-01-10 23:32:00,22.0,22.0,29.77,West,270,18.0,27.0,99,0.00,,,-99.99,,2013-01-11 06:32:00,
2013-01-10 23:42:00,22.0,22.0,29.77,West,270,18.0,27.0,99,0.00,,,-99.99,,2013-01-11 06:42:00,
2013-01-10 23:52:00,21.0,21.0,29.77,West,270,16.0,23.0,100,0.00,,,-99.99,,2013-01-11 06:52:00,